,,Stat6,,Stat2,,Stat8,,Stat9,,Stat10,,Wind1,,Wind1,
time,status,PA1M_AVG,status,PR1M_SUM,status,RH1M_AVG,status,SR1M_AVG,status,TA1M_AVG,status,W1dAve1m,status,W1sAve1m,
2005-01-29, 00:00:00,VALID,916.899,VALID,0,VALID,99.498,VALID,-0.0509425,VALID,20.2935,VALID,342,VALID,0.403088,
2005-01-29, 00:01:00,VALID,916.906,VALID,0,VALID,99.7993,VALID,-0.0509425,VALID,20.293,VALID,7,VALID,0.769727,
2005-01-29, 00:02:00,VALID,916.911,VALID,0,VALID,99.9456,VALID,-0.0509425,VALID,20.2959,VALID,6,VALID,0.633878,
2005-01-29, 00:03:00,VALID,916.918,VALID,0,VALID,99.9977,VALID,-0.0339617,VALID,20.3054,VALID,20,VALID,1.00266,
2005-01-29, 00:04:00,VALID,916.899,VALID,0,VALID,100,VALID,-0.0339617,VALID,20.3446,VALID,2,VALID,0.771257,
2005-01-29, 00:05:00,VALID,916.888,VALID,0,VALID,99.8932,VALID,0,VALID,20.2897,VALID,336,VALID,0.878815,
2005-01-29, 00:06:00,VALID,916.867,VALID,0,VALID,99.9227,VALID,-0.0169808,VALID,20.2502,VALID,360,VALID,0.667708,
2005-01-29, 00:07:00,VALID,916.85,VALID,0,VALID,100,VALID,0,VALID,20.2766,VALID,351,VALID,0.0278201,
2005-01-29, 00:08:00,VALID,916.822,VALID,0,VALID,100,VALID,-0.0339617,VALID,20.2733,VALID,357,VALID,0.365699,
2005-01-29, 00:09:00,VALID,916.803,VALID,0,VALID,100,VALID,-0.0169808,VALID,20.286,VALID,21,VALID,0.934375,
2005-01-29, 00:10:00,VALID,916.793,VALID,0,VALID,100,VALID,-0.0509425,VALID,20.3021,VALID,9,VALID,0.807173,
2005-01-29, 00:11:00,VALID,916.76,VALID,0,VALID,100,VALID,0.0169808,VALID,20.3118,VALID,23,VALID,0.77468,
2005-01-29, 00:12:00,VALID,916.745,VALID,0,VALID,100,VALID,-0.0339617,VALID,20.2994,VALID,17,VALID,1.18559,
2005-01-29, 00:13:00,VALID,916.737,VALID,0,VALID,100,VALID,0.0339617,VALID,20.2825,VALID,10,VALID,1.02616,
2005-01-29, 00:14:00,VALID,916.726,VALID,0,VALID,100,VALID,0,VALID,20.3024,VALID,20,VALID,0.651163,
2005-01-29, 00:15:00,VALID,916.717,VALID,0,VALID,100,VALID,-0.0169808,VALID,20.2892,VALID,12,VALID,0.921512,
2005-01-29, 00:16:00,VALID,916.706,VALID,0,VALID,100,VALID,-0.0169808,VALID,20.2989,VALID,340,VALID,0.830915,
2005-01-29, 00:17:00,VALID,916.698,VALID,0,VALID,99.9212,VALID,-0.0169808,VALID,20.2502,VALID,6,VALID,1.17094,
2005-01-29, 00:18:00,VALID,916.685,VALID,0,VALID,99.793,VALID,-0.0169808,VALID,20.1985,VALID,15,VALID,1.46162,
2005-01-29, 00:19:00,VALID,916.696,VALID,0,VALID,99.9072,VALID,-0.0169808,VALID,20.1856,VALID,19,VALID,1.54805,
2005-01-29, 00:20:00,VALID,916.703,VALID,0,VALID,100,VALID,-0.0169808,VALID,20.2047,VALID,26,VALID,0.686012,
2005-01-29, 00:21:00,VALID,916.71,VALID,0.2,VALID,100,VALID,-0.0169808,VALID,20.2209,VALID,30,VALID,0.24814,
2005-01-29, 00:22:00,VALID,916.72,VALID,0,VALID,100,VALID,0,VALID,20.2378,VALID,26,VALID,0.435192,
2005-01-29, 00:23:00,VALID,916.724,VALID,0,VALID,100,VALID,0,VALID,20.2472,VALID,30,VALID,0.40625,
2005-01-29, 00:24:00,VALID,916.71,VALID,0,VALID,100,VALID,0,VALID,20.2505,VALID,21,VALID,0.48316,
2005-01-29, 00:25:00,VALID,916.728,VALID,0,VALID,100,VALID,0.0169808,VALID,20.2631,VALID,1,VALID,0.581101,
2005-01-29, 00:26:00,VALID,916.712,VALID,0,VALID,100,VALID,-0.0339617,VALID,20.2564,VALID,11,VALID,0.910061,
2005-01-29, 00:27:00,VALID,916.712,VALID,0,VALID,100,VALID,0,VALID,20.2211,VALID,354,VALID,0.886979,
2005-01-29, 00:28:00,VALID,916.698,VALID,0,VALID,99.9939,VALID,0,VALID,20.1794,VALID,1,VALID,1.11464,
2005-01-29, 00:29:00,VALID,916.687,VALID,0,VALID,99.9667,VALID,0,VALID,20.1243,VALID,15,VALID,0.767078,
2005-01-29, 00:30:00,VALID,916.67,VALID,0,VALID,100,VALID,0,VALID,20.1243,VALID,13,VALID,0.9246,
2005-01-29, 00:31:00,VALID,916.643,VALID,0,VALID,100,VALID,0.0169808,VALID,20.1046,VALID,7,VALID,0.540305,
2005-01-29, 00:32:00,VALID,916.619,VALID,0,VALID,100,VALID,0,VALID,20.092,VALID,13,VALID,0.707849,
2005-01-29, 00:33:00,VALID,916.589,VALID,0,VALID,100,VALID,0.0169808,VALID,20.1054,VALID,275,VALID,0.507813,
2005-01-29, 00:34:00,VALID,916.57,VALID,0,VALID,100,VALID,0,VALID,20.0984,VALID,10,VALID,0.983994,
2005-01-29, 00:35:00,VALID,916.55,VALID,0,VALID,100,VALID,0,VALID,20.1084,VALID,20,VALID,0.689918,
2005-01-29, 00:36:00,VALID,916.521,VALID,0,VALID,100,VALID,-0.0169808,VALID,20.0954,VALID,11,VALID,0.773438,
2005-01-29, 00:37:00,VALID,916.501,VALID,0,VALID,100,VALID,0,VALID,20.0858,VALID,11,VALID,1.26563,
2005-01-29, 00:38:00,VALID,916.474,VALID,0,VALID,100,VALID,-0.0509425,VALID,20.0994,VALID,349,VALID,0.585193,
2005-01-29, 00:39:00,VALID,916.454,VALID,0,VALID,100,VALID,0,VALID,20.0795,VALID,8,VALID,1.02586,
2005-01-29, 00:40:00,VALID,916.443,VALID,0,VALID,100,VALID,-0.0169808,VALID,20.0373,VALID,2,VALID,1.52195,
2005-01-29, 00:41:00,VALID,916.427,VALID,0,VALID,100,VALID,-0.0339617,VALID,20.044,VALID,2,VALID,1.45952,
2005-01-29, 00:42:00,VALID,916.431,VALID,0,VALID,100,VALID,0,VALID,20.015,VALID,15,VALID,1.38172,
2005-01-29, 00:43:00,VALID,916.43,VALID,0,VALID,100,VALID,-0.0169808,VALID,19.9859,VALID,12,VALID,1.47489,
2005-01-29, 00:44:00,VALID,916.441,VALID,0,VALID,100,VALID,-0.0339617,VALID,19.9797,VALID,11,VALID,1.55114,
2005-01-29, 00:45:00,VALID,916.451,VALID,0,VALID,100,VALID,-0.0339617,VALID,19.9633,VALID,18,VALID,1.0282,
2005-01-29, 00:46:00,VALID,916.45,VALID,0,VALID,100,VALID,0,VALID,20.0085,VALID,19,VALID,0.268714,
2005-01-29, 00:47:00,VALID,916.444,VALID,0,VALID,100,VALID,-0.0169808,VALID,20.0053,VALID,19,VALID,0.0307049,
2005-01-29, 00:48:00,VALID,916.447,VALID,0,VALID,100,VALID,-0.0169808,VALID,19.9991,VALID,359,VALID,0.307231,
2005-01-29, 00:49:00,VALID,916.429,VALID,0.2,VALID,100,VALID,0,VALID,19.9958,VALID,353,VALID,0.518821,
2005-01-29, 00:50:00,VALID,916.43,VALID,0,VALID,100,VALID,-0.0169808,VALID,20.002,VALID,358,VALID,0.783067,
2005-01-29, 00:51:00,VALID,916.399,VALID,0,VALID,100,VALID,-0.0169808,VALID,20.0053,VALID,18,VALID,1.05887,
2005-01-29, 00:52:00,VALID,916.375,VALID,0,VALID,100,VALID,0,VALID,19.9993,VALID,7,VALID,0.760975,
2005-01-29, 00:53:00,VALID,916.332,VALID,0,VALID,100,VALID,-0.0169808,VALID,19.9827,VALID,358,VALID,1.15962,
2005-01-29, 00:54:00,VALID,916.292,VALID,0,VALID,100,VALID,0,VALID,19.9439,VALID,310,VALID,0.788542,
2005-01-29, 00:55:00,VALID,916.265,VALID,0,VALID,100,VALID,0,VALID,19.9086,VALID,344,VALID,1.18299,
2005-01-29, 00:56:00,VALID,916.227,VALID,0,VALID,100,VALID,-0.0339617,VALID,19.8761,VALID,338,VALID,0.808254,
2005-01-29, 00:57:00,VALID,916.195,VALID,0,VALID,100,VALID,0,VALID,19.8503,VALID,9,VALID,0.36044,
2005-01-29, 00:58:00,VALID,916.167,VALID,0,VALID,100,VALID,0,VALID,19.8441,VALID,301,VALID,0.322493,
2005-01-29, 00:59:00,VALID,916.157,VALID,0,VALID,100,VALID,-0.0339617,VALID,19.8376,VALID,301,VALID,0.0369318,
2005-01-29, 01:00:00,VALID,916.134,VALID,0,VALID,100,VALID,-0.0169808,VALID,19.8766,VALID,313,VALID,0.0809659,
2005-01-29, 01:01:00,VALID,916.131,VALID,0,VALID,100,VALID,-0.0169808,VALID,19.9191,VALID,9,VALID,0.556686,
2005-01-29, 01:02:00,VALID,916.116,VALID,0,VALID,100,VALID,-0.0169808,VALID,19.9221,VALID,353,VALID,1.03252,
2005-01-29, 01:03:00,VALID,916.113,VALID,0,VALID,100,VALID,-0.0169808,VALID,19.9186,VALID,1,VALID,1.32972,
2005-01-29, 01:04:00,VALID,916.077,VALID,0,VALID,100,VALID,0,VALID,19.892,VALID,7,VALID,2.32969,
2005-01-29, 01:05:00,VALID,916.102,VALID,0,VALID,100,VALID,-0.0169808,VALID,19.8895,VALID,3,VALID,1.69066,
2005-01-29, 01:06:00,VALID,916.075,VALID,0,VALID,100,VALID,0,VALID,19.8701,VALID,357,VALID,1.38299,
2005-01-29, 01:07:00,VALID,916.076,VALID,0,VALID,100,VALID,0,VALID,19.8309,VALID,345,VALID,1.53454,
2005-01-29, 01:08:00,VALID,916.065,VALID,0,VALID,100,VALID,0,VALID,19.8247,VALID,11,VALID,1.15365,
2005-01-29, 01:09:00,VALID,916.047,VALID,0,VALID,100,VALID,0,VALID,19.8572,VALID,12,VALID,1.20024,
2005-01-29, 01:10:00,VALID,916.039,VALID,0,VALID,100,VALID,0.0169808,VALID,19.893,VALID,11,VALID,1.05659,
2005-01-29, 01:11:00,VALID,916.022,VALID,0,VALID,100,VALID,0,VALID,19.9211,VALID,21,VALID,1.19016,
2005-01-29, 01:12:00,VALID,916.025,VALID,0,VALID,100,VALID,-0.0169808,VALID,19.9668,VALID,17,VALID,0.726172,
2005-01-29, 01:13:00,VALID,916.017,VALID,0,VALID,100,VALID,-0.0339617,VALID,19.9991,VALID,11,VALID,0.397892,
2005-01-29, 01:14:00,VALID,916.032,VALID,0,VALID,100,VALID,0,VALID,20.0381,VALID,12,VALID,0.281068,
2005-01-29, 01:15:00,VALID,916.046,VALID,0,VALID,100,VALID,-0.0169808,VALID,20.044,VALID,12,VALID,0.455669,
2005-01-29, 01:16:00,VALID,916.067,VALID,0,VALID,100,VALID,-0.0169808,VALID,20.0699,VALID,12,VALID,0.237432,
2005-01-29, 01:17:00,VALID,916.091,VALID,0,VALID,100,VALID,-0.0169808,VALID,20.0771,VALID,23,VALID,0.884055,
2005-01-29, 01:18:00,VALID,916.123,VALID,0,VALID,100,VALID,-0.0339617,VALID,20.0801,VALID,26,VALID,0.767671,
2005-01-29, 01:19:00,VALID,916.143,VALID,0,VALID,100,VALID,0,VALID,20.1094,VALID,25,VALID,0.455611,
2005-01-29, 01:20:00,VALID,916.171,VALID,0,VALID,100,VALID,-0.0509425,VALID,20.1424,VALID,24,VALID,0.501143,
2005-01-29, 01:21:00,VALID,916.181,VALID,0,VALID,100,VALID,-0.0849042,VALID,20.1427,VALID,21,VALID,0.732279,
2005-01-29, 01:22:00,VALID,916.202,VALID,0,VALID,100,VALID,-0.101885,VALID,20.1365,VALID,8,VALID,0.838423,
2005-01-29, 01:23:00,VALID,916.204,VALID,0,VALID,100,VALID,-0.101885,VALID,20.0875,VALID,19,VALID,0.768164,
2005-01-29, 01:24:00,VALID,916.205,VALID,0,VALID,100,VALID,-0.101885,VALID,20.0724,VALID,16,VALID,0.866257,
2005-01-29, 01:25:00,VALID,916.205,VALID,0,VALID,100,VALID,-0.101885,VALID,20.0617,VALID,16,VALID,0.722202,
2005-01-29, 01:26:00,VALID,916.198,VALID,0,VALID,100,VALID,-0.101885,VALID,20.0232,VALID,326,VALID,0.623302,
2005-01-29, 01:27:00,VALID,916.189,VALID,0,VALID,100,VALID,-0.101885,VALID,19.9844,VALID,357,VALID,0.455171,
2005-01-29, 01:28:00,VALID,916.18,VALID,0,VALID,100,VALID,-0.101885,VALID,19.9715,VALID,357,VALID,0.394336,
2005-01-29, 01:29:00,VALID,916.163,VALID,0,VALID,100,VALID,-0.118866,VALID,19.9362,VALID,324,VALID,0.807165,
2005-01-29, 01:30:00,VALID,916.164,VALID,0,VALID,100,VALID,-0.101885,VALID,19.8972,VALID,344,VALID,0.555575,
2005-01-29, 01:31:00,VALID,916.159,VALID,0,VALID,100,VALID,-0.101885,VALID,19.9424,VALID,352,VALID,0.176897,
2005-01-29, 01:32:00,VALID,916.143,VALID,0,VALID,100,VALID,-0.101885,VALID,19.9487,VALID,356,VALID,0.21503,
2005-01-29, 01:33:00,VALID,916.145,VALID,0,VALID,100,VALID,-0.0849042,VALID,19.9551,VALID,11,VALID,0.76181,
2005-01-29, 01:34:00,VALID,916.143,VALID,0,VALID,100,VALID,-0.0849042,VALID,19.978,VALID,20,VALID,0.850543,
2005-01-29, 01:35:00,VALID,916.138,VALID,0,VALID,100,VALID,-0.0339617,VALID,19.9775,VALID,12,VALID,0.506904,
2005-01-29, 01:36:00,VALID,916.123,VALID,0,VALID,100,VALID,0,VALID,19.9534,VALID,8,VALID,0.489826,
2005-01-29, 01:37:00,VALID,916.115,VALID,0,VALID,100,VALID,0,VALID,20.0088,VALID,6,VALID,0.116642,
2005-01-29, 01:38:00,VALID,916.103,VALID,0,VALID,100,VALID,0,VALID,20.0214,VALID,6,VALID,0.326079,
2005-01-29, 01:39:00,VALID,916.09,VALID,0,VALID,100,VALID,0.0169808,VALID,20.0252,VALID,6,VALID,0.461301,
2005-01-29, 01:40:00,VALID,916.075,VALID,0,VALID,100,VALID,0,VALID,20.0093,VALID,290,VALID,0.384448,
2005-01-29, 01:41:00,VALID,916.076,VALID,0,VALID,100,VALID,-0.0169808,VALID,19.9727,VALID,350,VALID,0.308117,
2005-01-29, 01:42:00,VALID,916.068,VALID,0,VALID,100,VALID,0,VALID,19.967,VALID,8,VALID,0.106957,
2005-01-29, 01:43:00,VALID,916.057,VALID,0,VALID,100,VALID,0,VALID,19.9534,VALID,8,VALID,0.0348837,
2005-01-29, 01:44:00,VALID,916.054,VALID,0,VALID,100,VALID,0.0169808,VALID,19.9767,VALID,8,VALID,0.0490552,
2005-01-29, 01:45:00,VALID,916.02,VALID,0,VALID,100,VALID,0,VALID,20.0023,VALID,8,VALID,0.339543,
2005-01-29, 01:46:00,VALID,915.995,VALID,0,VALID,100,VALID,0.0169808,VALID,20.0316,VALID,12,VALID,0.30625,
2005-01-29, 01:47:00,VALID,915.961,VALID,0,VALID,100,VALID,0,VALID,20.041,VALID,12,VALID,0.297238,
2005-01-29, 01:48:00,VALID,915.914,VALID,0,VALID,100,VALID,0,VALID,20.0669,VALID,12,VALID,0.490513,
2005-01-29, 01:49:00,VALID,915.885,VALID,0,VALID,100,VALID,0.0339617,VALID,20.0281,VALID,13,VALID,0.573552,
2005-01-29, 01:50:00,VALID,915.862,VALID,0,VALID,100,VALID,0,VALID,20.0152,VALID,19,VALID,0.680233,
2005-01-29, 01:51:00,VALID,915.832,VALID,0,VALID,100,VALID,0,VALID,20.0217,VALID,19,VALID,0.832217,
2005-01-29, 01:52:00,VALID,915.821,VALID,0,VALID,100,VALID,0,VALID,20.0286,VALID,20,VALID,0.970656,
2005-01-29, 01:53:00,VALID,915.804,VALID,0,VALID,100,VALID,0.0169808,VALID,20.0187,VALID,15,VALID,0.836328,
2005-01-29, 01:54:00,VALID,915.795,VALID,0,VALID,100,VALID,0.0169808,VALID,20.012,VALID,359,VALID,0.377308,
2005-01-29, 01:55:00,VALID,915.784,VALID,0,VALID,100,VALID,0.0169808,VALID,20.0117,VALID,359,VALID,0.532158,
2005-01-29, 01:56:00,VALID,915.783,VALID,0,VALID,100,VALID,0,VALID,20.0082,VALID,9,VALID,0.624199,
2005-01-29, 01:57:00,VALID,915.777,VALID,0,VALID,100,VALID,0.0169808,VALID,19.9986,VALID,24,VALID,0.616211,
2005-01-29, 01:58:00,VALID,915.785,VALID,0,VALID,100,VALID,0.0169808,VALID,19.9991,VALID,14,VALID,0.529948,
2005-01-29, 01:59:00,VALID,915.798,VALID,0,VALID,100,VALID,-0.0169808,VALID,20.006,VALID,12,VALID,0.304506,
2005-01-29, 02:00:00,VALID,915.807,VALID,0,VALID,100,VALID,0,VALID,20.0058,VALID,12,VALID,0.311523,
2005-01-29, 02:01:00,VALID,915.833,VALID,0,VALID,100,VALID,0.0169808,VALID,19.9896,VALID,356,VALID,0.573475,
2005-01-29, 02:02:00,VALID,915.863,VALID,0,VALID,100,VALID,0,VALID,19.9469,VALID,357,VALID,0.41282,
2005-01-29, 02:03:00,VALID,915.876,VALID,0,VALID,100,VALID,0,VALID,19.9539,VALID,18,VALID,0.800409,
2005-01-29, 02:04:00,VALID,915.9,VALID,0,VALID,100,VALID,-0.0169808,VALID,19.9571,VALID,9,VALID,0.794202,
2005-01-29, 02:05:00,VALID,915.913,VALID,0,VALID,100,VALID,0,VALID,19.9539,VALID,2,VALID,0.274435,
2005-01-29, 02:06:00,VALID,915.928,VALID,0,VALID,100,VALID,-0.0169808,VALID,19.9737,VALID,2,VALID,0.0820313,
2005-01-29, 02:07:00,VALID,915.938,VALID,0,VALID,100,VALID,0,VALID,19.9703,VALID,2,VALID,0.152071,
2005-01-29, 02:08:00,VALID,915.953,VALID,0,VALID,100,VALID,-0.0169808,VALID,20.0127,VALID,2,VALID,0.25436,
2005-01-29, 02:09:00,VALID,915.964,VALID,0.2,VALID,100,VALID,0,VALID,20.0249,VALID,10,VALID,0.47904,
2005-01-29, 02:10:00,VALID,915.987,VALID,0,VALID,100,VALID,0.0169808,VALID,20.0445,VALID,12,VALID,0.145275,
2005-01-29, 02:11:00,VALID,916.002,VALID,0.2,VALID,100,VALID,0,VALID,20.0217,VALID,10,VALID,0.179501,
2005-01-29, 02:12:00,VALID,916.003,VALID,0.2,VALID,100,VALID,0,VALID,19.9924,VALID,9,VALID,0.0141715,
2005-01-29, 02:13:00,VALID,916.022,VALID,0,VALID,100,VALID,0,VALID,19.9819,VALID,9,VALID,0,
2005-01-29, 02:14:00,VALID,916.019,VALID,0.2,VALID,100,VALID,0,VALID,19.9829,VALID,9,VALID,0,
2005-01-29, 02:15:00,VALID,916.027,VALID,0.2,VALID,100,VALID,-0.0169808,VALID,20.0122,VALID,9,VALID,0.132813,
2005-01-29, 02:16:00,VALID,916.009,VALID,0.4,VALID,100,VALID,0,VALID,20.0311,VALID,9,VALID,0.160156,
2005-01-29, 02:17:00,VALID,916.006,VALID,0.2,VALID,100,VALID,0,VALID,20.0607,VALID,9,VALID,0.215732,
2005-01-29, 02:18:00,VALID,915.988,VALID,0,VALID,100,VALID,0,VALID,20.0408,VALID,9,VALID,0.147135,
2005-01-29, 02:19:00,VALID,915.97,VALID,0,VALID,100,VALID,0,VALID,20.044,VALID,9,VALID,0,
2005-01-29, 02:20:00,VALID,915.95,VALID,0,VALID,100,VALID,0.0169808,VALID,20.0112,VALID,347,VALID,0.22561,
2005-01-29, 02:21:00,VALID,915.947,VALID,0.2,VALID,100,VALID,0,VALID,19.9697,VALID,252,VALID,0.456364,
2005-01-29, 02:22:00,VALID,915.927,VALID,0,VALID,100,VALID,0,VALID,19.9514,VALID,251,VALID,0.532393,
2005-01-29, 02:23:00,VALID,915.916,VALID,0.2,VALID,100,VALID,0,VALID,19.9019,VALID,243,VALID,0.72311,
2005-01-29, 02:24:00,VALID,915.909,VALID,0,VALID,100,VALID,-0.0169808,VALID,19.896,VALID,240,VALID,0.508384,
2005-01-29, 02:25:00,VALID,915.89,VALID,0,VALID,100,VALID,0,VALID,19.8997,VALID,261,VALID,0.45332,
2005-01-29, 02:26:00,VALID,915.867,VALID,0.2,VALID,100,VALID,-0.0169808,VALID,19.9116,VALID,307,VALID,0.474144,
2005-01-29, 02:27:00,VALID,915.852,VALID,0,VALID,100,VALID,-0.0169808,VALID,19.9151,VALID,350,VALID,0.257068,
2005-01-29, 02:28:00,VALID,915.829,VALID,0.2,VALID,100,VALID,-0.0169808,VALID,19.9345,VALID,351,VALID,0.130526,
2005-01-29, 02:29:00,VALID,915.821,VALID,0.2,VALID,100,VALID,0,VALID,19.9601,VALID,351,VALID,0,
2005-01-29, 02:30:00,VALID,915.789,VALID,0,VALID,100,VALID,0,VALID,19.9794,VALID,355,VALID,0.315304,
2005-01-29, 02:31:00,VALID,915.774,VALID,0,VALID,100,VALID,-0.0339617,VALID,19.9824,VALID,14,VALID,0.444041,
2005-01-29, 02:32:00,VALID,915.766,VALID,0,VALID,100,VALID,0,VALID,19.9929,VALID,10,VALID,0.456782,
2005-01-29, 02:33:00,VALID,915.758,VALID,0,VALID,100,VALID,0,VALID,19.9765,VALID,358,VALID,0.424162,
2005-01-29, 02:34:00,VALID,915.755,VALID,0,VALID,100,VALID,0,VALID,19.9633,VALID,357,VALID,0.265092,
2005-01-29, 02:35:00,VALID,915.735,VALID,0,VALID,100,VALID,0,VALID,19.9859,VALID,358,VALID,0.442042,
2005-01-29, 02:36:00,VALID,915.707,VALID,0,VALID,100,VALID,-0.0169808,VALID,20.0125,VALID,12,VALID,0.795632,
2005-01-29, 02:37:00,VALID,915.694,VALID,0.2,VALID,100,VALID,0,VALID,20.0545,VALID,15,VALID,0.554688,
2005-01-29, 02:38:00,VALID,915.679,VALID,0,VALID,100,VALID,0,VALID,20.0699,VALID,12,VALID,0.347301,
2005-01-29, 02:39:00,VALID,915.65,VALID,0,VALID,100,VALID,0,VALID,20.0835,VALID,12,VALID,0.384266,
2005-01-29, 02:40:00,VALID,915.604,VALID,0,VALID,100,VALID,-0.0169808,VALID,20.0927,VALID,12,VALID,0.0326705,
2005-01-29, 02:41:00,VALID,915.57,VALID,0,VALID,100,VALID,0,VALID,20.0801,VALID,27,VALID,0.451308,
2005-01-29, 02:42:00,VALID,915.536,VALID,0,VALID,100,VALID,-0.0509425,VALID,20.0801,VALID,21,VALID,0.607031,
2005-01-29, 02:43:00,VALID,915.517,VALID,0,VALID,100,VALID,-0.0169808,VALID,20.0699,VALID,27,VALID,0.180208,
2005-01-29, 02:44:00,VALID,915.495,VALID,0,VALID,100,VALID,0,VALID,20.0547,VALID,181,VALID,0.721839,
2005-01-29, 02:45:00,VALID,915.481,VALID,0,VALID,100,VALID,-0.0169808,VALID,20.0093,VALID,251,VALID,0.477865,
2005-01-29, 02:46:00,VALID,915.481,VALID,0,VALID,100,VALID,0,VALID,20.015,VALID,23,VALID,0.269159,
2005-01-29, 02:47:00,VALID,915.468,VALID,0,VALID,100,VALID,0,VALID,20.0383,VALID,27,VALID,0.00837054,
2005-01-29, 02:48:00,VALID,915.465,VALID,0,VALID,100,VALID,0,VALID,20.0316,VALID,37,VALID,0.250801,
2005-01-29, 02:49:00,VALID,915.448,VALID,0,VALID,100,VALID,-0.0169808,VALID,20.0184,VALID,60,VALID,0.250521,
2005-01-29, 02:50:00,VALID,915.464,VALID,0,VALID,100,VALID,0,VALID,20.0184,VALID,31,VALID,0.196911,
2005-01-29, 02:51:00,VALID,915.433,VALID,0.2,VALID,100,VALID,0.0169808,VALID,20.0249,VALID,94,VALID,0.418713,
2005-01-29, 02:52:00,VALID,915.453,VALID,0,VALID,100,VALID,-0.0169808,VALID,19.9695,VALID,213,VALID,0.328316,
2005-01-29, 02:53:00,VALID,915.463,VALID,0,VALID,100,VALID,0,VALID,19.9407,VALID,157,VALID,0.497275,
2005-01-29, 02:54:00,VALID,915.449,VALID,0,VALID,100,VALID,0,VALID,19.9047,VALID,133,VALID,0.410156,
2005-01-29, 02:55:00,VALID,915.449,VALID,0,VALID,100,VALID,-0.0169808,VALID,19.8955,VALID,77,VALID,0.931944,
2005-01-29, 02:56:00,VALID,915.468,VALID,0,VALID,100,VALID,0,VALID,19.8957,VALID,47,VALID,0.870617,
2005-01-29, 02:57:00,VALID,915.471,VALID,0,VALID,100,VALID,-0.0169808,VALID,19.9022,VALID,10,VALID,0.60774,
2005-01-29, 02:58:00,VALID,915.506,VALID,0,VALID,100,VALID,-0.0169808,VALID,19.8927,VALID,21,VALID,0.527058,
2005-01-29, 02:59:00,VALID,915.525,VALID,0,VALID,100,VALID,0,VALID,19.8863,VALID,33,VALID,0.6746,
2005-01-29, 03:00:00,VALID,915.543,VALID,0,VALID,100,VALID,0,VALID,19.8823,VALID,28,VALID,0.953472,
2005-01-29, 03:01:00,VALID,915.594,VALID,0.2,VALID,100,VALID,0,VALID,19.8922,VALID,28,VALID,0.995722,
2005-01-29, 03:02:00,VALID,915.602,VALID,0,VALID,100,VALID,0.0169808,VALID,19.9081,VALID,24,VALID,1.02894,
2005-01-29, 03:03:00,VALID,915.614,VALID,0,VALID,100,VALID,0,VALID,19.8888,VALID,25,VALID,1.12853,
2005-01-29, 03:04:00,VALID,915.621,VALID,0,VALID,100,VALID,0.0169808,VALID,19.8701,VALID,43,VALID,0.0429688,
2005-01-29, 03:05:00,VALID,915.64,VALID,0,VALID,100,VALID,0,VALID,19.8306,VALID,54,VALID,0.220567,
2005-01-29, 03:06:00,VALID,915.627,VALID,0.2,VALID,100,VALID,0,VALID,19.8021,VALID,310,VALID,0.591442,
2005-01-29, 03:07:00,VALID,915.612,VALID,0,VALID,100,VALID,0,VALID,19.7825,VALID,357,VALID,1.03161,
2005-01-29, 03:08:00,VALID,915.629,VALID,0,VALID,100,VALID,0,VALID,19.8028,VALID,207,VALID,0.431108,
2005-01-29, 03:09:00,VALID,915.615,VALID,0,VALID,100,VALID,0.0169808,VALID,19.7603,VALID,147,VALID,0.370094,
2005-01-29, 03:10:00,VALID,915.607,VALID,0,VALID,100,VALID,0,VALID,19.7052,VALID,358,VALID,1.35778,
2005-01-29, 03:11:00,VALID,915.602,VALID,0,VALID,100,VALID,0,VALID,19.6376,VALID,308,VALID,0.5,
2005-01-29, 03:12:00,VALID,915.59,VALID,0,VALID,100,VALID,-0.0169808,VALID,19.615,VALID,76,VALID,1.01653,
2005-01-29, 03:13:00,VALID,915.577,VALID,0,VALID,100,VALID,0,VALID,19.6145,VALID,20,VALID,0.60423,
2005-01-29, 03:14:00,VALID,915.583,VALID,0,VALID,100,VALID,0,VALID,19.6409,VALID,22,VALID,1.34756,
2005-01-29, 03:15:00,VALID,915.577,VALID,0,VALID,100,VALID,0,VALID,19.6342,VALID,163,VALID,0.890625,
2005-01-29, 03:16:00,VALID,915.552,VALID,0,VALID,100,VALID,0.0169808,VALID,19.5885,VALID,38,VALID,1.1717,
2005-01-29, 03:17:00,VALID,915.551,VALID,0,VALID,100,VALID,0.0169808,VALID,19.5788,VALID,24,VALID,0.917878,
2005-01-29, 03:18:00,VALID,915.516,VALID,0,VALID,100,VALID,0,VALID,19.583,VALID,13,VALID,1.54883,
2005-01-29, 03:19:00,VALID,915.527,VALID,0,VALID,100,VALID,-0.0169808,VALID,19.5957,VALID,7,VALID,0.522905,
2005-01-29, 03:20:00,VALID,915.525,VALID,0,VALID,100,VALID,0.0169808,VALID,19.5954,VALID,36,VALID,0.660792,
2005-01-29, 03:21:00,VALID,915.507,VALID,0,VALID,100,VALID,0.0169808,VALID,19.576,VALID,110,VALID,0.488567,
2005-01-29, 03:22:00,VALID,915.511,VALID,0,VALID,100,VALID,0,VALID,19.5564,VALID,78,VALID,0.773251,
2005-01-29, 03:23:00,VALID,915.513,VALID,0,VALID,100,VALID,0,VALID,19.5664,VALID,24,VALID,0.500381,
2005-01-29, 03:24:00,VALID,915.527,VALID,0,VALID,100,VALID,0,VALID,19.5823,VALID,19,VALID,0.263317,
2005-01-29, 03:25:00,VALID,915.515,VALID,0,VALID,100,VALID,0,VALID,19.5862,VALID,12,VALID,0.515816,
2005-01-29, 03:26:00,VALID,915.533,VALID,0,VALID,100,VALID,0,VALID,19.5624,VALID,3,VALID,0.624645,
2005-01-29, 03:27:00,VALID,915.54,VALID,0,VALID,100,VALID,0,VALID,19.5594,VALID,13,VALID,0.793826,
2005-01-29, 03:28:00,VALID,915.551,VALID,0,VALID,100,VALID,-0.0169808,VALID,19.5698,VALID,19,VALID,0.916548,
2005-01-29, 03:29:00,VALID,915.543,VALID,0,VALID,100,VALID,0.0169808,VALID,19.582,VALID,22,VALID,0.610328,
2005-01-29, 03:30:00,VALID,915.533,VALID,0,VALID,100,VALID,0,VALID,19.6284,VALID,20,VALID,0.252257,
2005-01-29, 03:31:00,VALID,915.507,VALID,0.2,VALID,100,VALID,-0.0169808,VALID,19.6086,VALID,23,VALID,0.912388,
2005-01-29, 03:32:00,VALID,915.481,VALID,0,VALID,100,VALID,0.0169808,VALID,19.6153,VALID,338,VALID,0.931686,
2005-01-29, 03:33:00,VALID,915.499,VALID,0,VALID,100,VALID,-0.0339617,VALID,19.5798,VALID,259,VALID,0.655523,
2005-01-29, 03:34:00,VALID,915.502,VALID,0,VALID,100,VALID,0,VALID,19.5472,VALID,246,VALID,0.565104,
2005-01-29, 03:35:00,VALID,915.471,VALID,0,VALID,100,VALID,0.0339617,VALID,19.5597,VALID,345,VALID,0.440518,
2005-01-29, 03:36:00,VALID,915.463,VALID,0,VALID,100,VALID,-0.0169808,VALID,19.5438,VALID,281,VALID,0.352095,
2005-01-29, 03:37:00,VALID,915.473,VALID,0,VALID,100,VALID,0.0169808,VALID,19.5438,VALID,254,VALID,0.276042,
2005-01-29, 03:38:00,VALID,915.473,VALID,0,VALID,100,VALID,0,VALID,19.5475,VALID,112,VALID,0.480382,
2005-01-29, 03:39:00,VALID,915.409,VALID,0.2,VALID,100,VALID,0.0169808,VALID,19.5378,VALID,178,VALID,0.689499,
2005-01-29, 03:40:00,VALID,915.434,VALID,0,VALID,100,VALID,0,VALID,19.5052,VALID,223,VALID,0.79347,
2005-01-29, 03:41:00,VALID,915.413,VALID,0,VALID,100,VALID,0,VALID,19.5087,VALID,116,VALID,0.697311,
2005-01-29, 03:42:00,VALID,915.394,VALID,0,VALID,100,VALID,0,VALID,19.5082,VALID,85,VALID,0.864397,
2005-01-29, 03:43:00,VALID,915.372,VALID,0,VALID,100,VALID,0,VALID,19.5013,VALID,213,VALID,1.08708,
2005-01-29, 03:44:00,VALID,915.358,VALID,0.2,VALID,100,VALID,0,VALID,19.5052,VALID,284,VALID,0.804332,